Location: ??
(35.4032°N, 139.3073°E)
Time: 21:57:34
(UTC+00:00)

NOAA 17 DEB - Visible Passes

Search period start: 19 September 2024 00:00
Search period end: 29 September 2024 00:00
Orbit: 584 x 633 km, 98.9° (Epoch: 13 August)

Date Brightness Start Highest point End Pass type
(mag) Time Alt. Az. Time Alt. Az. Time Alt. Az.
19 Sep ? 10:35:42 11° NNE 10:35:42 11° NNE 10:35:58 10° NNE visible
20 Sep ? 10:43:44 11° NNE 10:43:44 11° NNE 10:44:00 10° NNE visible
21 Sep ? 10:51:37 11° NNE 10:51:37 11° NNE 10:51:48 10° N visible
22 Sep ? 10:59:20 10° N 10:59:20 10° N 10:59:25 10° N visible
